DELTA 1 R/B, 738

Orbit data source: Space-Track

DELTA 1 R/B, 738 is space debris originally from a launch on Tue, 21 Jan 1964 UTC launched from the Air Force Eastern Test Range (AFETR). Debris objects in space refer to the collection of defunct objects orbiting the Earth. Examples of debris include non-operational satellites, rocket bodies, and fragments generated from explosions, collisions, or faulty payload assembly.

Loading next visibility...
Identifier
738, 1964-003B
Orbit
Active
Country
Flag of USUS
Related business
Manufacturer
ABL
Mission
Spacecraft
Bus & Motor
ALTAIR, Unknown motor
Mass
24 kg wet, 24 kg dry
Launch date (UTC)
1964-01-21 (62 years ago)
Launch vehicle
Unknown
Launch site
Air Force Eastern Test Range (AFETR)
Object type
Payload
Rocket body
Debris
Shape & HBR
Cyl, 0.8 m
Radar Cross Section
0.687 m², Medium (>0.1 m² and < 1m²)

Expand to show TLE details & history
Last TLE update: 1 day ago

TLE from 1 day ago
0 DELTA 1 R/B
1 00738U 64003B   25261.11237000 -.00000025  00000-0  00000-0 0  9999
2 00738  46.4573 300.1822 2604228  68.6863 317.0558  7.39344479665350
Epoch: 2025-09-18T02:41Z
TLE epoch observation values (Epoch: 2025-09-18T02:41:48.768Z)
Latitude
Longitude
-97.54964°
Altitude
3,097.642 km
Speed
6.952 km/s
True Right ascension
20h 00m 43s
True Declination
0° 00' 00"
Sunlit
Object was in daylight at epoch
Visualization orbit readout
Latitude
Unknown
Longitude
Unknown
Altitude
Unknown
Speed
Unknown
Apparent Right ascension
Unknown
Apparent Declination
Unknown
Sunlit
N/A
Visualization observer readout
Local Sidereal Time
20:08:52
Azimuth
Unknown
Elevation
Unknown
Doppler factor
Unknown
Orbital elements
Apogee altitude
7,651.835 km
Perigee altitude
1,854.218 km
Semi-major axis
11,131.164 km
Eccentricity
0.26042
Inclination
46.4573°
RAAN
300.1822°
Arg. of periapsis
68.6863°
True anomaly
291.37874°
Mean anomaly
317.0558°
Eccentric anomaly
304.80391°
Mean motion
1.84813 °/min
Orbital period
194.79 mins
BSTAR
0
Loading maneuver chart data...
Computing Atmospheric mass density...
Loading historical data...
Loading historical data...
Loading historical data...
Loading historical data...
Loading historical data...
Loading historical data...
Loading historical data...
Other satellites on launch #3 in the year 1964 (1964-01-21 UTC)

Documentation

Showing up to 5 results
|